TimeMST,TemperatureF,Dew PointF,Humidity,Sea Level PressureIn,VisibilityMPH,Wind Direction,Wind SpeedMPH,Gust SpeedMPH,PrecipitationIn,Events,Conditions,WindDirDegrees,DateUTC
12:53 AM,21.0,10.9,65,29.99,10.0,Calm,Calm,-,N/A,,Overcast,0,2013-12-09 07:53:00
1:53 AM,21.0,8.1,57,29.99,10.0,Calm,Calm,-,N/A,,Overcast,0,2013-12-09 08:53:00
2:53 AM,19.9,8.1,60,30.00,10.0,Calm,Calm,-,N/A,,Overcast,0,2013-12-09 09:53:00
3:53 AM,19.0,9.0,65,30.01,10.0,NW,3.5,-,N/A,,Overcast,320,2013-12-09 10:53:00
4:53 AM,17.1,8.1,68,30.04,10.0,Calm,Calm,-,N/A,,Overcast,0,2013-12-09 11:53:00
5:53 AM,14.0,6.1,71,30.08,10.0,Calm,Calm,-,N/A,,Partly Cloudy,0,2013-12-09 12:53:00
6:53 AM,9.0,1.0,70,30.13,10.0,Calm,Calm,-,N/A,,Scattered Clouds,0,2013-12-09 13:53:00
7:53 AM,8.1,-0.0,70,30.21,10.0,Variable,3.5,-,N/A,,Clear,0,2013-12-09 14:53:00
8:53 AM,14.0,-0.0,54,30.22,10.0,NNE,8.1,-,N/A,,Clear,30,2013-12-09 15:53:00
9:53 AM,18.0,1.0,48,30.25,10.0,NNE,5.8,-,N/A,,Clear,20,2013-12-09 16:53:00
10:53 AM,21.0,1.0,42,30.25,10.0,North,8.1,-,N/A,,Clear,350,2013-12-09 17:53:00
11:53 AM,21.9,-0.9,37,30.25,10.0,North,10.4,-,N/A,,Clear,360,2013-12-09 18:53:00
12:53 PM,24.1,-2.0,32,30.23,10.0,North,12.7,-,N/A,,Clear,360,2013-12-09 19:53:00
1:53 PM,24.1,-0.9,34,30.26,10.0,NNE,11.5,-,N/A,,Clear,20,2013-12-09 20:53:00
2:53 PM,25.0,-2.9,30,30.27,10.0,NNE,9.2,-,N/A,,Clear,30,2013-12-09 21:53:00
3:53 PM,24.1,-4.0,29,30.31,10.0,NNE,11.5,-,N/A,,Clear,20,2013-12-09 22:53:00
4:53 PM,19.9,-4.0,35,30.36,10.0,North,8.1,-,N/A,,Clear,10,2013-12-09 23:53:00
5:53 PM,14.0,-4.0,45,30.43,10.0,NNE,5.8,-,N/A,,Clear,20,2013-12-10 00:53:00
6:53 PM,12.9,-5.1,45,30.47,10.0,North,6.9,-,N/A,,Clear,360,2013-12-10 01:53:00
7:53 PM,10.0,-5.1,51,30.50,10.0,Calm,Calm,-,N/A,,Clear,0,2013-12-10 02:53:00
8:53 PM,1.0,-7.1,69,30.53,10.0,South,5.8,-,N/A,,Clear,190,2013-12-10 03:53:00
9:53 PM,1.0,-9.0,63,30.53,10.0,Calm,Calm,-,N/A,,Clear,0,2013-12-10 04:53:00
10:53 PM,-0.9,-9.9,66,30.58,10.0,Calm,Calm,-,N/A,,Clear,0,2013-12-10 05:53:00
11:53 PM,-4.0,-11.0,72,30.61,10.0,South,3.5,-,N/A,,Clear,180,2013-12-10 06:53:00